Location: Newark
(35.2672°N, 80.7344°W)
Time: 07:13:01
(UTC+00:00)

Vanguard 2 Rocket - Pass Details

Date: 23 January 2020
Orbit: 554 x 3327 km, 32.9° (Epoch: 20 February)

Event Time Altitude Azimuth Distance (km) Brightness Sun altitude
Rises 15:50:25 0° 277° (W) 4,143 10.0 29.9°
Reaches altitude 10° 15:52:53 10° 271° (W) 3,460 9.7 30.2°
Maximum altitude 16:01:37 47° 201° (SSW) 2,503 10.1 31.0°
Drops below altitude 10° 16:16:22 10° 135° (SE) 5,669 12.1 32.2°
Sets 16:21:45 0° 131° (SE) 6,986 12.2 32.6°
